• en Suisse
  • Liste des pays
  • À 7 jours
  • Température de l'eau
  • Carte satellitaire
  • Carte météo
  • Widgets météo
  • user-avatar
    Se connecter

    Météo par heure à Lotkazino

    Ce jour, 25 Septembre, Mardi

    Heure Température Précipitation Vent Pression Humidité
    00:00 +10°C° 0.5 mm 7 m/s 746 mmHg 75%
    01:00 +10°C° 0.4 mm 7 m/s 745 mmHg 77%
    02:00 +10°C° 0.4 mm 7 m/s 745 mmHg 80%
    03:00 +10°C° 0 mm 6 m/s 744 mmHg 85%
    04:00 +10°C° 0.6 mm 6 m/s 743 mmHg 85%
    05:00 +10°C° 0.6 mm 6 m/s 743 mmHg 85%
    06:00 +10°C° 0.6 mm 6 m/s 743 mmHg 85%
    07:00 +10°C° 0.4 mm 6 m/s 743 mmHg 85%
    08:00 +10°C° 0.4 mm 5 m/s 743 mmHg 84%
    09:00 +10°C° 0 mm 5 m/s 743 mmHg 83%
    10:00 +10°C° 0 mm 5 m/s 743 mmHg 78%
    11:00 +11°C° 0 mm 6 m/s 743 mmHg 74%
    12:00 +11°C° 0 mm 6 m/s 743 mmHg 69%
    13:00 +11°C° 0 mm 6 m/s 744 mmHg 68%
    14:00 +11°C° 0 mm 6 m/s 745 mmHg 66%
    15:00 +11°C° 0 mm 6 m/s 745 mmHg 65%
    16:00 +10°C° 0 mm 6 m/s 746 mmHg 67%
    17:00 +10°C° 0 mm 5 m/s 746 mmHg 68%
    18:00 +9°C° 0 mm 5 m/s 747 mmHg 70%
    19:00 +9°C° 0 mm 5 m/s 747 mmHg 72%
    20:00 +8°C° 0 mm 5 m/s 748 mmHg 73%
    21:00 +8°C° 0 mm 5 m/s 748 mmHg 74%
    22:00 +7°C° 0 mm 5 m/s 749 mmHg 75%
    23:00 +7°C° 0 mm 5 m/s 750 mmHg 76%

    Demain, 26 Septembre, Mercredi

    Heure Température Précipitation Vent Pression Humidité
    00:00 +7°C° 0 mm 5 m/s 750 mmHg 77%
    01:00 +7°C° 0 mm 5 m/s 751 mmHg 77%
    02:00 +7°C° 0 mm 5 m/s 751 mmHg 78%
    03:00 +7°C° 0 mm 5 m/s 752 mmHg 78%
    04:00 +6°C° 0 mm 4 m/s 752 mmHg 80%
    05:00 +6°C° 0 mm 4 m/s 753 mmHg 81%
    06:00 +5°C° 0 mm 4 m/s 753 mmHg 83%
    07:00 +6°C° 0 mm 4 m/s 754 mmHg 80%
    08:00 +6°C° 0 mm 4 m/s 755 mmHg 77%
    09:00 +7°C° 0 mm 5 m/s 756 mmHg 74%
    10:00 +7°C° 0 mm 4 m/s 756 mmHg 71%
    11:00 +8°C° 0 mm 4 m/s 756 mmHg 67%
    12:00 +8°C° 0 mm 4 m/s 757 mmHg 63%
    13:00 +10°C° 0 mm 4 m/s 757 mmHg 61%
    14:00 +10°C° 0 mm 4 m/s 757 mmHg 59%
    15:00 +10°C° 0 mm 4 m/s 757 mmHg 56%
    16:00 +10°C° 0 mm 3 m/s 757 mmHg 58%
    17:00 +9°C° 0 mm 3 m/s 758 mmHg 60%
    18:00 +9°C° 0 mm 2 m/s 758 mmHg 62%
    19:00 +8°C° 0 mm 2 m/s 758 mmHg 65%
    20:00 +7°C° 0 mm 2 m/s 758 mmHg 68%
    21:00 +5°C° 0 mm 3 m/s 758 mmHg 70%
    22:00 +4°C° 0 mm 3 m/s 757 mmHg 70%
    23:00 +4°C° 0 mm 3 m/s 757 mmHg 70%

    Après-demain, 27 Septembre, Jeudi

    Heure Température Précipitation Vent Pression Humidité
    00:00 +4°C° 0 mm 4 m/s 756 mmHg 70%
    01:00 +4°C° 0 mm 4 m/s 756 mmHg 69%
    02:00 +3°C° 0 mm 5 m/s 755 mmHg 68%
    03:00 +5°C° 0 mm 5 m/s 754 mmHg 67%
    04:00 +4°C° 0 mm 6 m/s 753 mmHg 66%
    05:00 +4°C° 0 mm 6 m/s 752 mmHg 65%
    06:00 +5°C° 0 mm 7 m/s 751 mmHg 64%
    07:00 +5°C° 0.7 mm 8 m/s 750 mmHg 68%
    08:00 +4°C° 0.7 mm 8 m/s 750 mmHg 72%
    09:00 +3°C° 0.7 mm 9 m/s 749 mmHg 75%
    10:00 +3°C° 1.6 mm 9 m/s 748 mmHg 78%
    11:00 +3°C° 1.6 mm 9 m/s 747 mmHg 80%
    12:00 +3°C° 1.6 mm 9 m/s 747 mmHg 83%
    13:00 +5°C° 1.2 mm 9 m/s 746 mmHg 84%
    14:00 +5°C° 1.2 mm 8 m/s 746 mmHg 86%
    15:00 +6°C° 1.2 mm 8 m/s 745 mmHg 87%
    16:00 +6°C° 0.6 mm 7 m/s 745 mmHg 87%
    17:00 +8°C° 0.6 mm 7 m/s 745 mmHg 86%
    18:00 +8°C° 0.6 mm 6 m/s 745 mmHg 86%
    19:00 +7°C° 0.3 mm 6 m/s 746 mmHg 85%
    20:00 +7°C° 0.3 mm 5 m/s 746 mmHg 84%
    21:00 +6°C° 0.3 mm 4 m/s 747 mmHg 84%
    22:00 +6°C° 0 mm 4 m/s 747 mmHg 84%
    23:00 +5°C° 0 mm 4 m/s 747 mmHg 84%

    28 Septembre, Vendredi

    Heure Température Précipitation Vent Pression Humidité
    00:00 +5°C° 0 mm 4 m/s 748 mmHg 85%
    01:00 +5°C° 0 mm 4 m/s 748 mmHg 86%
    02:00 +5°C° 0 mm 4 m/s 749 mmHg 86%
    03:00 +5°C° 0 mm 4 m/s 749 mmHg 87%
    04:00 +4°C° 0 mm 4 m/s 749 mmHg 88%
    05:00 +4°C° 0 mm 4 m/s 749 mmHg 89%
    06:00 +4°C° 0 mm 4 m/s 750 mmHg 91%
    07:00 +5°C° 0 mm 4 m/s 750 mmHg 85%
    08:00 +6°C° 0 mm 5 m/s 750 mmHg 80%
    09:00 +8°C° 0 mm 5 m/s 750 mmHg 75%
    10:00 +9°C° 0 mm 5 m/s 750 mmHg 68%
    11:00 +10°C° 0 mm 6 m/s 749 mmHg 61%
    12:00 +13°C° 0 mm 6 m/s 749 mmHg 54%
    13:00 +12°C° 0 mm 7 m/s 748 mmHg 54%
    14:00 +13°C° 0 mm 8 m/s 747 mmHg 53%
    15:00 +15°C° 0 mm 9 m/s 746 mmHg 52%
    16:00 +13°C° 0.1 mm 8 m/s 746 mmHg 58%
    17:00 +13°C° 0.1 mm 8 m/s 745 mmHg 63%
    18:00 +13°C° 0.1 mm 8 m/s 744 mmHg 69%
    19:00 +13°C° 0.2 mm 8 m/s 744 mmHg 72%
    20:00 +13°C° 0.2 mm 8 m/s 743 mmHg 75%
    21:00 +15°C° 0.2 mm 9 m/s 743 mmHg 78%
    22:00 +12°C° 0.6 mm 8 m/s 744 mmHg 79%
    23:00 +11°C° 0.6 mm 8 m/s 745 mmHg 80%

    29 Septembre, Samedi

    Heure Température Précipitation Vent Pression Humidité
    00:00 +10°C° 0.6 mm 7 m/s 746 mmHg 81%
    01:00 +8°C° 0 mm 6 m/s 747 mmHg 81%
    02:00 +6°C° 0 mm 5 m/s 748 mmHg 82%
    03:00 +4°C° 0 mm 4 m/s 750 mmHg 83%
    04:00 +4°C° 0 mm 4 m/s 751 mmHg 83%
    05:00 +3°C° 0 mm 3 m/s 751 mmHg 84%
    06:00 +2°C° 0 mm 3 m/s 752 mmHg 84%
    07:00 +3°C° 0 mm 3 m/s 753 mmHg 78%
    08:00 +4°C° 0 mm 3 m/s 754 mmHg 72%
    09:00 +5°C° 0 mm 3 m/s 755 mmHg 65%
    10:00 +7°C° 0 mm 3 m/s 755 mmHg 59%
    11:00 +8°C° 0 mm 3 m/s 755 mmHg 53%
    12:00 +10°C° 0 mm 3 m/s 756 mmHg 47%
    13:00 +10°C° 0 mm 3 m/s 756 mmHg 47%
    14:00 +10°C° 0 mm 3 m/s 756 mmHg 46%
    15:00 +10°C° 0 mm 3 m/s 756 mmHg 46%
    16:00 +9°C° 0 mm 2 m/s 756 mmHg 50%
    17:00 +9°C° 0 mm 2 m/s 756 mmHg 54%
    18:00 +9°C° 0 mm 1 m/s 757 mmHg 58%
    19:00 +8°C° 0 mm 1 m/s 757 mmHg 60%
    20:00 +8°C° 0 mm 1 m/s 758 mmHg 61%
    21:00 +6°C° 0 mm 2 m/s 758 mmHg 63%
    22:00 +5°C° 0 mm 2 m/s 759 mmHg 64%
    23:00 +5°C° 0 mm 2 m/s 759 mmHg 65%

    30 Septembre, Dimanche

    Heure Température Précipitation Vent Pression Humidité
    00:00 +4°C° 0 mm 2 m/s 759 mmHg 66%
    01:00 +3°C° 0 mm 2 m/s 760 mmHg 66%
    02:00 +3°C° 0 mm 2 m/s 760 mmHg 67%
    03:00 +3°C° 0 mm 1 m/s 760 mmHg 68%
    04:00 +3°C° 0 mm 1 m/s 761 mmHg 69%
    05:00 +2°C° 0 mm 1 m/s 761 mmHg 71%
    06:00 +2°C° 0 mm 1 m/s 761 mmHg 72%
    07:00 +3°C° 0 mm 1 m/s 762 mmHg 67%
    08:00 +5°C° 0 mm 1 m/s 762 mmHg 62%
    09:00 +6°C° 0 mm 1 m/s 762 mmHg 57%
    10:00 +7°C° 0 mm 1 m/s 762 mmHg 51%
    11:00 +7°C° 0 mm 2 m/s 762 mmHg 45%
    12:00 +9°C° 0 mm 2 m/s 762 mmHg 39%
    13:00 +9°C° 0 mm 2 m/s 762 mmHg 38%
    14:00 +9°C° 0 mm 2 m/s 762 mmHg 37%
    15:00 +9°C° 0 mm 3 m/s 761 mmHg 37%
    16:00 +8°C° 0 mm 2 m/s 761 mmHg 42%
    17:00 +7°C° 0 mm 2 m/s 761 mmHg 47%
    18:00 +6°C° 0 mm 1 m/s 761 mmHg 52%
    19:00 +5°C° 0 mm 2 m/s 762 mmHg 55%
    20:00 +4°C° 0 mm 2 m/s 762 mmHg 57%
    21:00 +4°C° 0 mm 2 m/s 762 mmHg 59%
    22:00 +4°C° 0 mm 2 m/s 762 mmHg 62%
    23:00 +3°C° 0 mm 2 m/s 762 mmHg 64%
    Voir plus